Cross City, FL

9:08 AM EST on December 07, 2019 (GMT -0500)
Cross City

Weather History for KCTY - October, 2019

Change the Weather History Date:

Friday, October 18, 2019

  Actual Average Record
Temperature  
Mean Temperature 63 °F 70 °F  
Max Temperature 68 °F 82 °F 91 °F (2018)
Min Temperature 58 °F 57 °F 37 °F (2001)
Degree Days  
Heating Degree Days 2    
Month to date heating degree days 2  
Since 1 July heating degree days 2  
Cooling Degree Days 0    
Month to date cooling degree days 205  
Year to date cooling degree days 2962  
Growing Degree Days 12 (Base 50)    
Moisture  
Dew Point 58 °F    
Average Humidity 85    
Maximum Humidity 98    
Minimum Humidity 63    
Precipitation  
Precipitation 0.52 in 0.10 in 0.25 in (2006)
Month to date precipitation 1.16 2.25  
Year to date precipitation 48.63 42.08  
Sea Level Pressure  
Sea Level Pressure 29.93 in    
Wind  
Wind Speed 5 mph (ENE)    
Max Wind Speed 9 mph    
Max Gust Speed -    
Visibility 9 miles    
Events Rain    
T = Trace of Precipitation, MM = Missing Value Source: NWS Daily Summary

Daily Weather History Graph

Daily Weather History Graph

Search for Another Location

Airport or City:

Astronomy

Oct. 18, 2019 Rise Set
Actual Time 7:35 AM EDT 6:58 PM EDT
Civil Twilight 7:11 AM EDT 7:22 PM EDT
Nautical Twilight 6:43 AM EDT 7:50 PM EDT
Astronomical Twilight 6:16 AM EDT 8:18 PM EDT
Moon 10:31 PM EDT (10/18) 11:51 AM EDT (10/18)
Length of Visible Light 12h 11m
Length of Day
11h 23m
Waning Gibbous, 79% of the Moon is Illuminated
Oct 18
Waning Gibbous
Oct 21
Last Quarter
Oct 27
New
Nov 4
First Quarter
Nov 12
Full

Hourly Weather History & Observations

Time (EDT) Temp. Dew Point Humidity Pressure Visibility Wind Dir Wind Speed Gust Speed Precip Events Conditions
12:15 AM 61.0 °F 57.7 °F 89% 29.97 in 10.0 mi Calm Calm - N/A   Unknown
12:35 AM 60.8 °F 57.2 °F 88% 29.97 in 10.0 mi Calm Calm - N/A   Unknown
12:55 AM 59.5 °F 57.2 °F 92% 29.96 in 10.0 mi Calm Calm - N/A   Unknown
1:15 AM 59.9 °F 57.6 °F 92% 29.96 in 10.0 mi SSE 3.5 mph - N/A   Unknown
1:35 AM 59.5 °F 57.4 °F 93% 29.96 in 10.0 mi Calm Calm - N/A   Unknown
1:55 AM 58.8 °F 57.0 °F 94% 29.96 in 10.0 mi Calm Calm - N/A   Unknown
2:15 AM 58.6 °F 56.8 °F 94% 29.95 in 10.0 mi NNE 4.6 mph - N/A   Unknown
2:35 AM 58.3 °F 57.0 °F 96% 29.95 in 10.0 mi Calm Calm - N/A   Unknown
2:55 AM 58.6 °F 57.4 °F 96% 29.94 in 10.0 mi Calm Calm - N/A   Unknown
3:35 AM 59.0 °F 57.2 °F 94% 29.93 in 10.0 mi North 3.5 mph - N/A   Unknown
3:55 AM 59.0 °F 57.2 °F 94% 29.91 in 10.0 mi NNE 4.6 mph - N/A   Unknown
4:15 AM 59.7 °F 56.7 °F 90% 29.90 in 10.0 mi North 6.9 mph - N/A   Unknown
4:35 AM 60.6 °F 56.3 °F 86% 29.92 in 10.0 mi Calm Calm - N/A   Unknown
5:35 AM 60.6 °F 55.9 °F 85% 29.92 in 10.0 mi Calm Calm - N/A   Clear
5:55 AM 60.3 °F 55.4 °F 84% 29.91 in 10.0 mi NE 3.5 mph - N/A   Unknown
6:15 AM 60.6 °F 56.1 °F 85% 29.92 in 10.0 mi ENE 3.5 mph - N/A   Unknown
6:35 AM 60.8 °F 55.4 °F 82% 29.92 in 10.0 mi NE 3.5 mph - N/A   Unknown
6:55 AM 61.0 °F 55.2 °F 81% 29.93 in 10.0 mi ENE 3.5 mph - N/A   Unknown
7:15 AM 61.7 °F 52.3 °F 71% 29.94 in 10.0 mi NE 3.5 mph - N/A Rain Light Rain
7:35 AM 61.0 °F 54.5 °F 79% 29.95 in 10.0 mi Calm Calm - N/A   Unknown
7:55 AM 60.8 °F 57.2 °F 88% 29.96 in 10.0 mi East 3.5 mph - N/A   Unknown
8:15 AM 61.0 °F 54.9 °F 80% 29.97 in 10.0 mi Calm Calm - N/A Rain Light Rain
8:35 AM 61.0 °F 55.0 °F 81% 29.97 in 10.0 mi Calm Calm - N/A   Unknown
8:55 AM 61.3 °F 55.0 °F 80% 29.99 in 10.0 mi East 4.6 mph - N/A Rain Light Rain
9:15 AM 61.5 °F 54.1 °F 77% 29.99 in 10.0 mi NE 3.5 mph - N/A   Unknown
9:35 AM 62.2 °F 53.4 °F 73% 29.99 in 10.0 mi Calm Calm - N/A   Scattered Clouds
9:55 AM 62.6 °F 53.4 °F 72% 29.99 in 10.0 mi NE 5.8 mph - N/A Rain Light Rain
10:15 AM 63.1 °F 53.6 °F 71% 29.98 in 10.0 mi NE 4.6 mph - N/A   Unknown
10:35 AM 63.3 °F 53.2 °F 70% 29.98 in 10.0 mi NE 5.8 mph - N/A   Unknown
10:55 AM 63.5 °F 54.5 °F 72% 29.98 in 10.0 mi NNE 6.9 mph - N/A Rain Light Rain
11:35 AM 64.4 °F 54.7 °F 71% 29.98 in 10.0 mi East 3.5 mph - N/A   Unknown
11:55 AM 65.3 °F 54.1 °F 67% 29.98 in 10.0 mi East 5.8 mph - N/A   Unknown
12:15 PM 66.4 °F 54.5 °F 66% 29.98 in 10.0 mi ENE 4.6 mph - N/A   Scattered Clouds
12:35 PM 66.9 °F 54.7 °F 65% 29.97 in 10.0 mi East 3.5 mph - N/A   Clear
12:55 PM 67.1 °F 54.1 °F 63% 29.96 in 10.0 mi ENE 4.6 mph - N/A   Scattered Clouds
1:15 PM 66.9 °F 54.9 °F 65% 29.96 in 10.0 mi East 4.6 mph - N/A Rain Light Rain
1:35 PM 64.9 °F 57.7 °F 77% 29.95 in 10.0 mi East 5.8 mph - N/A Rain Light Rain
1:55 PM 65.8 °F 56.8 °F 73% 29.94 in 10.0 mi NE 4.6 mph - N/A Rain Light Rain
2:15 PM 66.0 °F 56.7 °F 72% 29.94 in 10.0 mi NE 3.5 mph - 0.04 in   Unknown
2:35 PM 65.7 °F 56.7 °F 73% 29.94 in 10.0 mi NE 5.8 mph - 0.04 in Rain Light Rain
2:55 PM 64.9 °F 58.1 °F 78% 29.94 in 10.0 mi NE 5.8 mph - 0.04 in Rain Light Rain
3:15 PM 63.7 °F 59.5 °F 86% 29.93 in 10.0 mi NE 5.8 mph - N/A Rain Light Rain
3:35 PM 63.1 °F 59.7 °F 89% 29.93 in 10.0 mi NE 4.6 mph - 0.01 in Rain Light Rain
3:55 PM 63.7 °F 60.6 °F 90% 29.93 in 10.0 mi NNE 6.9 mph - 0.01 in Rain Light Rain
4:15 PM 63.9 °F 60.8 °F 90% 29.92 in 10.0 mi NE 6.9 mph - N/A Rain Light Rain
4:35 PM 63.7 °F 59.4 °F 86% 29.91 in 10.0 mi NE 8.1 mph - N/A Rain Light Rain
4:55 PM 62.6 °F 59.0 °F 88% 29.91 in 10.0 mi ENE 3.5 mph - 0.01 in Rain Light Rain
5:15 PM 62.6 °F 59.0 °F 88% 29.90 in 10.0 mi ENE 4.6 mph - N/A Rain Light Rain
5:35 PM 62.4 °F 59.9 °F 91% 29.91 in 7.0 mi ESE 3.5 mph - 0.01 in Rain Light Rain
5:55 PM 62.4 °F 60.3 °F 93% 29.90 in 10.0 mi ESE 4.6 mph - 0.01 in   Unknown
6:15 PM 62.8 °F 60.6 °F 93% 29.89 in 10.0 mi ENE 4.6 mph - N/A Rain Light Rain
6:35 PM 63.0 °F 60.6 °F 92% 29.88 in 10.0 mi ENE 4.6 mph - N/A Rain Light Rain
6:55 PM 63.0 °F 60.6 °F 92% 29.87 in 10.0 mi NE 5.8 mph - N/A Rain Light Rain
7:15 PM 63.0 °F 60.8 °F 93% 29.87 in 10.0 mi ENE 3.5 mph - 0.01 in Rain Light Rain
7:35 PM 63.0 °F 61.2 °F 94% 29.89 in 10.0 mi East 3.5 mph - 0.01 in Rain Light Rain
7:55 PM 62.8 °F 61.5 °F 96% 29.88 in 7.0 mi East 4.6 mph - 0.02 in Rain Rain
8:15 PM 63.0 °F 61.7 °F 96% 29.89 in 10.0 mi Calm Calm - 0.01 in Rain Light Rain
8:35 PM 63.0 °F 61.9 °F 96% 29.88 in 10.0 mi ENE 4.6 mph - 0.01 in Rain Light Rain
8:55 PM 63.1 °F 61.7 °F 95% 29.89 in 10.0 mi ENE 4.6 mph - 0.02 in Rain Light Rain
9:15 PM 63.3 °F 62.2 °F 96% 29.90 in 7.0 mi ESE 4.6 mph - 0.01 in Rain Rain
9:35 PM 63.5 °F 62.6 °F 97% 29.88 in 3.0 mi ENE 5.8 mph - 0.07 in Rain Heavy Rain
9:55 PM 63.9 °F 63.1 °F 97% 29.90 in 7.0 mi East 5.8 mph - 0.09 in Rain Light Rain
10:15 PM 64.4 °F 63.5 °F 97% 29.90 in 2.5 mi East 5.8 mph - 0.04 in Rain Heavy Rain
10:35 PM 64.8 °F 63.9 °F 97% 29.89 in 7.0 mi East 8.1 mph - 0.06 in Rain Light Rain
10:55 PM 64.9 °F 64.0 °F 97% 29.89 in 2.5 mi East 6.9 mph - 0.11 in Rain Rain
11:15 PM 65.1 °F 64.4 °F 98% 29.89 in 5.0 mi East 5.8 mph - 0.02 in Rain Light Rain
11:35 PM 65.3 °F 64.6 °F 98% 29.88 in 4.0 mi East 6.9 mph - 0.05 in Rain Rain
11:55 PM 65.1 °F 64.2 °F 97% 29.87 in 10.0 mi East 9.2 mph - 0.07 in Rain Light Rain